Hundvaag 1 weather for Feb 1997
Month no. 116
Obs.
Da.
Temp. Dew Point Precip. Wind
Speed
Wind gusts Cloud cover Press. Humidity Wind dir. Sunny OPT
01.02.1997 -3,9   0,0     6       1  
02.02.1997 2,2   0,0     0          
03.02.1997 0,6   9,0     10       1  
04.02.1997 4,0   15,0     0          
05.02.1997 2,4   2,0     8       1  
06.02.1997 2,8   3,0     0          
07.02.1997 7,0   9,0     4          
08.02.1997 4,4   3,0     0          
09.02.1997 5,5   14,0     0          
10.02.1997 4,4   12,0     0          
11.02.1997 4,9   40,0     0          
12.02.1997 3,4   6,0     10       1  
13.02.1997 4,2   0,0     0          
14.02.1997 1,1   0,0     0          
15.02.1997 -3,1   11,5     0          
16.02.1997 -2,4   1,0     9       1  
17.02.1997 -0,4   0,0     9       1  
18.02.1997 4,5   17,0     0          
19.02.1997 4,2   1,0     6       1  
20.02.1997 5,1   16,0     0          
21.02.1997 5,4   7,0     3          
22.02.1997 7,5   16,0     0          
23.02.1997 6,8   1,0     0          
24.02.1997 6,6   10,0     0          
25.02.1997 3,7   10,0     0          
26.02.1997 3,5   17,0     0          
27.02.1997 0,6   0,0     1          
28.02.1997 6,7   5,0     0          
                       
                       
                       
Avrg/Sum 3,3   225,5     2,4       7